Zurück zum Katalog

STARLINK-3692

AktivKommunikationVLEO
NORAD 51958·PAYLOAD·🇺🇸 United States

Gestartet Mar 9, 2022 von Cape Canaveral Space Force Station

Loading…

Nächste Überflüge (nächste 24 Stunden)

TLE

AktuellSource: CelesTrak SupGP

Epoche: Sep 14, 2026, 19:57 UTC

1 51958C 22025C   26257.83173611  .00040193  00000+0  12925-2 0  2575
2 51958  53.1587 213.3325 0001313  93.8722 300.8309 15.31681900    15

Verfolge STARLINK-3692 in Echtzeit mit AllMySat

Download on the App Store